Location: Butler
(32.5575°N, 84.2380°W)
Time: 21:42:21
(UTC+00:00)

N. Korean satellite - Pass Details

Date: 11 December 2021
Orbit: 447 x 490 km, 97.3° (Epoch: 27 January)

Event Time Altitude Azimuth Distance (km) Brightness Sun altitude
Rises 23:00:12 0° 203° (SSW) 2,509 11.0 -6.2°
Reaches altitude 10° 23:02:56 10° 227° (SW) 1,626 10.6 -6.8°
Maximum altitude 23:05:03 15° 265° (W) 1,325 10.1 -7.2°
Drops below altitude 10° 23:07:11 10° 303° (WNW) 1,616 9.7 -7.6°
Sets 23:09:53 0° 327° (NNW) 2,486 10.3 -8.1°
